Zurück zum Katalog

COSMOS 2535

AktivNavigationSSO
NORAD 44421·PAYLOAD·🇷🇺 Russia

Gestartet Jul 10, 2019 von Plesetsk Cosmodrome

Loading…

Nächste Überflüge (nächste 24 Stunden)

TLE

AktuellSource: Space-Track

Epoche: Sep 14, 2026, 14:33 UTC

1 44421U 19039A   26257.60683987  .00000612  00000-0  65528-4 0  9995
2 44421  97.5729 282.3377 0006664 276.1734  83.8726 14.92084231389974

Verfolge COSMOS 2535 in Echtzeit mit AllMySat

Download on the App Store